sat.trackr.live / text

‹ back to catalog

STARLINK-36695

NORAD 67702 · 2026-025K

PAYLOAD ACTIVE UNKNOWN

§ Identity

Operator
Country
US
Launch date
2026-02-07
Launch site
AFWTR
Launch vehicle
Mass (kg)
RCS (m²)

Purposes: comms

External: N2YO · Heavens-Above · Gunter

§ Orbital elements

Epoch: 2026-05-25T00:36:44.520192Z

Period
93.91 min
Inclination
97.2835°
Eccentricity
0.0000622
Mean motion
15.33455535 rev/d
Perigee alt
465.1 km
Apogee alt
465.9 km
Semi-major
6,843.6 km
B*
4.9935e-4
RAAN
256.6765°
Arg perigee
87.5026°
Mean anomaly
272.6288°
Rev number
1,771

§ Raw data

STARLINK-366951 67702U 26025K   26145.02551528  .00016085  00000+0  49935-3 0  99952 67702  97.2835 256.6765 0000622  87.5026 272.6288 15.33455535 17713

JSON: /api/v1/satellites/67702 · /tle

For live sub-satellite position, see the globe view (requires WebGL).

§ Visibility from observer

Set your observer location to see the next 7 days of passes ≥ 10°. The values pass through the URL so the page stays shareable.

No JS? Fill the form by hand. The geolocation button needs JavaScript.